Location: Cudham
(51.3000°N, 0.0667°E)
Time: 16:32:31
(UTC+00:00)

USA 229 DEB - Pass Details

Date: 28 April 2026
Orbit: 844 x 1364 km, 63.4° (Epoch: 10 January)

Event Time Altitude Azimuth Distance (km) Brightness Sun altitude
Rises 20:25:28 0° 309° (NW) 3,833 9.0 -9.9°
Reaches altitude 10° 20:28:08 10° 315° (NW) 2,952 7.6 -10.2°
Maximum altitude 20:34:56 45° 28° (NNE) 1,575 4.7 -11.0°
Drops below altitude 10° 20:42:32 10° 100° (E) 3,295 5.7 -11.9°
Enters shadow 20:42:53 - 101° (E) 3,409 5.8 -12.0°
